GW6721 Weather Reports


time (UTC)temp
C
wind
direction
speed
KPH
gust
KPH
rain 1hr
cm
rain 24hr
cm
rain mn
cm
humidity
%
barometer
mb
20260507085523 9 165 0.0 0.0 0.00 0.00 0.00 66 1010.3
20260507085020 10 210 0.0 1.6 0.00 0.00 0.00 65 1010.3
20260507084516 10 273 0.0 0.0 0.00 0.00 0.00 54 1010.2
20260507084013 10 313 0.0 0.0 0.00 0.00 0.00 54 1010.2
20260507083509 10 278 0.0 1.6 0.00 0.00 0.00 57 1010.3
20260507083007 10 309 0.0 0.0 0.00 0.00 0.00 56 1010.4
20260507082502 10 347 0.0 1.6 0.00 0.00 0.00 54 1010.3
20260507081959 10 235 0.0 1.6 0.00 0.00 0.00 58 1010.5
20260507081455 10 266 0.0 0.0 0.00 0.00 0.00 56 1010.4
20260507080952 10 338 3.2 3.2 0.00 0.00 0.00 54 1010.3
20260507080448 10 293 3.2 3.2 0.00 0.00 0.00 53 1010.4
20260507075943 10 320 0.0 0.0 0.00 0.00 0.00 55 1010.5
20260507075440 10 336 0.0 1.6 0.00 0.00 0.00 55 1010.3
20260507074937 10 276 3.2 3.2 0.00 0.00 0.00 53 1010.3
20260507074433 10 4 4.8 9.7 0.00 0.00 0.00 52 1010.3
20260507073932 10 253 3.2 3.2 0.00 0.00 0.00 54 1010.4
20260507073428 11 321 1.6 1.6 0.00 0.00 0.00 51 1010.7
20260507072924 11 12 4.8 6.4 0.00 0.00 0.00 54 1010.6
20260507072422 11 305 3.2 3.2 0.00 0.00 0.00 53 1010.4
20260507071920 11 284 1.6 1.6 0.00 0.00 0.00 55 1010.3
20260507071416 11 282 1.6 1.6 0.00 0.00 0.00 52 1010.4
20260507070913 11 349 0.0 1.6 0.00 0.00 0.00 53 1010.5
20260507070410 11 258 1.6 1.6 0.00 0.00 0.00 54 1010.5
20260507065907 11 176 1.6 3.2 0.00 0.00 0.00 56 1010.6
20260507065403 11 309 3.2 3.2 0.00 0.00 0.00 54 1010.6
20260507064900 11 292 1.6 1.6 0.00 0.00 0.00 53 1010.6
20260507064359 11 317 1.6 3.2 0.00 0.00 0.00 55 1010.5
20260507063856 11 199 0.0 0.0 0.00 0.00 0.00 55 1010.4
20260507063353 11 260 3.2 3.2 0.00 0.00 0.00 54 1010.4
20260507062850 11 278 1.6 3.2 0.00 0.00 0.00 54 1010.2
20260507062346 11 265 1.6 3.2 0.00 0.00 0.00 58 1010.5
20260507061844 11 211 1.6 3.2 0.00 0.00 0.00 57 1010.3
20260507061342 11 294 1.6 1.6 0.00 0.00 0.00 57 1010.5
20260507060841 11 347 3.2 4.8 0.00 0.00 0.00 60 1010.7
20260507060337 11 299 6.4 6.4 0.00 0.00 0.00 62 1010.5
20260507055834 11 354 0.0 1.6 0.00 0.00 0.00 63 1010.6
20260507055329 11 247 4.8 6.4 0.00 0.00 0.00 62 1010.6
20260507054826 11 319 3.2 4.8 0.00 0.00 0.00 66 1010.6
20260507054322 11 311 3.2 4.8 0.00 0.00 0.00 70 1010.4
20260507053820 11 27 3.2 4.8 0.00 0.00 0.00 71 1010.4
20260507053317 11 342 0.0 0.0 0.00 0.00 0.00 74 1010.4
20260507052816 11 314 4.8 4.8 0.00 0.00 0.00 73 1010.6
20260507052312 11 196 4.8 9.7 0.00 0.00 0.00 73 1010.6
20260507051810 11 203 3.2 3.2 0.00 0.00 0.00 73 1010.5
20260507051307 12 332 3.2 3.2 0.00 0.00 0.00 74 1010.3
20260507050804 12 323 1.6 3.2 0.00 0.00 0.00 73 1010.4
20260507050300 12 340 1.6 3.2 0.00 0.00 0.00 72 1010.5
20260507045757 12 332 1.6 1.6 0.00 0.00 0.00 73 1010.5
20260507045253 12 296 1.6 1.6 0.00 0.00 0.00 72 1010.2
20260507044751 12 323 1.6 1.6 0.00 0.00 0.00 72 1010.2
20260507044247 12 314 3.2 3.2 0.00 0.00 0.00 71 1010.5
20260507043743 12 284 4.8 6.4 0.00 0.00 0.00 69 1010.6
20260507043240 12 295 1.6 1.6 0.00 0.00 0.00 70 1010.7
20260507042736 12 338 6.4 6.4 0.00 0.00 0.00 71 1010.5
20260507042232 12 230 4.8 4.8 0.00 0.00 0.00 73 1010.5
20260507041730 12 172 3.2 3.2 0.00 0.00 0.00 73 1010.4
20260507041226 12 253 1.6 1.6 0.00 0.00 0.00 74 1010.3
20260507040723 12 341 3.2 3.2 0.00 0.00 0.00 73 1010.3
20260507040219 12 312 0.0 0.0 0.00 0.00 0.00 73 1010.5
20260507035715 12 332 3.2 3.2 0.00 0.74 0.74 72 1010.3
20260507035211 12 128 1.6 1.6 0.00 0.74 0.74 73 1010.4
20260507034708 12 64 1.6 1.6 0.00 0.74 0.74 72 1010.5
20260507034205 12 318 3.2 3.2 0.00 0.74 0.74 71 1010.3
20260507033704 12 310 1.6 1.6 0.00 0.74 0.74 72 1010.5
20260507033201 12 329 1.6 3.2 0.00 0.74 0.74 73 1010.2
20260507032658 12 63 0.0 0.0 0.00 0.74 0.74 76 1010.2
20260507032153 12 348 4.8 9.7 0.00 0.74 0.74 73 1010.1
20260507031651 12 300 1.6 1.6 0.00 0.74 0.74 73 1010.0
20260507031147 13 317 0.0 1.6 0.00 0.74 0.74 74 1010.0
20260507030644 13 339 3.2 4.8 0.00 0.74 0.74 74 1009.8
20260507030142 13 273 0.0 1.6 0.00 0.74 0.74 74 1010.0
20260507025639 13 351 1.6 3.2 0.00 0.74 0.74 72 1009.9
20260507025136 13 352 6.4 9.7 0.00 0.74 0.74 73 1009.8
20260507024634 13 22 1.6 1.6 0.00 0.74 0.74 73 1009.8
20260507024131 13 313 4.8 4.8 0.00 0.74 0.74 72 1010.0
20260507023626 13 317 1.6 1.6 0.00 0.74 0.74 73 1010.2
20260507023124 13 298 3.2 4.8 0.00 0.74 0.74 72 1010.2
20260507022620 13 321 1.6 1.6 0.00 0.74 0.74 73 1010.1
20260507022115 13 312 1.6 3.2 0.00 0.74 0.74 75 1010.3
20260507021612 13 41 0.0 1.6 0.00 0.74 0.74 74 1009.9
20260507021108 13 322 0.0 1.6 0.00 0.74 0.74 74 1009.9
20260507020607 13 64 0.0 1.6 0.00 0.74 0.74 74 1009.7
20260507015601 13 338 1.6 1.6 0.00 0.74 0.74 76 1009.9
20260507015058 13 338 8.0 9.7 0.00 0.74 0.74 76 1010.1
20260507014555 13 337 3.2 4.8 0.00 0.74 0.74 76 1010.0
20260507014050 13 274 4.8 6.4 0.00 0.74 0.74 75 1009.9
20260507013547 14 344 4.8 6.4 0.00 0.74 0.74 75 1010.1
20260507013045 14 288 6.4 6.4 0.00 0.74 0.74 74 1010.2
20260507012542 14 11 3.2 3.2 0.00 0.74 0.74 74 1009.9
20260507012037 14 284 4.8 4.8 0.00 0.74 0.74 74 1009.9
20260507011535 14 211 3.2 4.8 0.00 0.74 0.74 74 1010.0
20260507011031 15 324 3.2 3.2 0.00 0.74 0.74 74 1009.7
20260507010526 15 322 3.2 6.4 0.00 0.74 0.74 74 1009.5
20260507010023 15 6 3.2 4.8 0.00 0.74 0.74 74 1009.6
20260507005520 15 337 1.6 3.2 0.00 0.74 0.74 76 1009.5
20260507005017 15 221 3.2 4.8 0.00 0.74 0.74 74 1009.6
20260507004514 15 15 1.6 1.6 0.00 0.74 0.74 75 1009.4
20260507004011 15 258 4.8 6.4 0.00 0.74 0.74 74 1009.4
20260507003506 15 351 1.6 1.6 0.00 0.74 0.74 74 1009.3
20260507003001 15 291 0.0 0.0 0.00 0.74 0.74 76 1009.4
20260507002458 15 85 0.0 0.0 0.00 0.74 0.74 75 1009.4
20260507001955 15 329 3.2 3.2 0.00 0.74 0.74 75 1009.0
20260507001451 15 304 0.0 1.6 0.00 0.74 0.74 75 1008.6
20260507000949 15 283 1.6 1.6 0.00 0.74 0.74 75 1008.8
20260507000444 15 272 3.2 3.2 0.00 0.74 0.74 75 1008.5
20260506235940 15 231 0.0 0.0 0.00 0.74 0.74 76 1008.4
20260506235438 16 256 0.0 1.6 0.00 0.74 0.74 75 1008.1
20260506234933 16 330 3.2 4.8 0.00 0.74 0.74 74 1008.0
20260506234431 16 283 8.0 11.3 0.00 0.74 0.74 76 1008.0
20260506233928 16 287 0.0 1.6 0.00 0.74 0.74 75 1007.8
20260506233425 16 230 3.2 4.8 0.00 0.74 0.74 76 1008.0
20260506232921 16 16 4.8 4.8 0.00 0.74 0.74 75 1007.6
20260506232418 16 247 1.6 1.6 0.00 0.74 0.74 76 1007.7
20260506231914 16 358 1.6 3.2 0.00 0.74 0.74 75 1007.5
20260506231411 16 328 6.4 12.9 0.00 0.74 0.74 74 1007.5
20260506230908 16 203 0.0 0.0 0.00 0.74 0.74 75 1007.5
20260506230405 16 6 1.6 3.2 0.00 0.74 0.74 76 1007.3
20260506225901 17 300 1.6 1.6 0.00 0.74 0.74 77 1007.4
20260506225359 17 341 4.8 6.4 0.00 0.74 0.74 77 1007.3
20260506224855 17 309 6.4 11.3 0.00 0.74 0.74 77 1007.5
20260506224353 17 340 8.0 11.3 0.00 0.74 0.74 77 1007.5
20260506223849 17 21 3.2 6.4 0.00 0.74 0.74 77 1007.5
20260506223344 17 315 1.6 1.6 0.00 0.74 0.74 78 1007.4
20260506222842 17 0 3.2 3.2 0.00 0.74 0.74 77 1007.2
20260506222337 17 351 3.2 3.2 0.00 0.74 0.74 78 1007.2
20260506221835 18 272 1.6 1.6 0.00 0.74 0.74 77 1007.2
20260506221332 18 37 3.2 4.8 0.00 0.74 0.74 78 1007.0
20260506220830 17 292 6.4 6.4 0.00 0.74 0.74 82 1006.9
20260506220325 18 212 0.0 0.0 0.00 0.74 0.74 88 1006.8
20260506215822 18 246 0.0 0.0 0.00 0.74 0.74 88 1006.7
20260506215318 18 221 1.6 1.6 0.00 0.74 0.74 88 1006.6
20260506214814 18 229 0.0 0.0 0.00 0.74 0.74 87 1006.4
20260506214311 18 202 0.0 0.0 0.00 0.74 0.74 87 1006.5
20260506213810 18 188 1.6 1.6 0.00 0.74 0.74 86 1006.4
20260506213306 18 271 0.0 1.6 0.00 0.74 0.74 86 1006.5
20260506212804 18 255 0.0 0.0 0.00 0.74 0.74 85 1006.1
20260506212259 18 262 0.0 0.0 0.00 0.74 0.74 85 1005.9
20260506211754 18 204 0.0 0.0 0.00 0.74 0.74 84 1005.9
20260506211251 19 8 0.0 0.0 0.00 0.74 0.74 85 1005.7
20260506210748 19 318 3.2 3.2 0.00 0.74 0.74 84 1005.6
20260506210245 19 226 0.0 0.0 0.00 0.74 0.74 86 1005.9
20260506205742 19 174 1.6 1.6 0.00 0.74 0.74 83 1005.8
20260506205237 19 125 1.6 1.6 0.00 0.74 0.74 81 1005.7
20260506204734 19 289 1.6 1.6 0.00 0.74 0.74 82 1005.9
20260506204232 19 265 3.2 6.4 0.00 0.74 0.74 81 1005.9
20260506203730 19 72 0.0 1.6 0.00 0.74 0.74 81 1005.8
20260506203226 20 2 4.8 4.8 0.00 0.74 0.74 81 1005.8
20260506202724 20 315 1.6 1.6 0.00 0.74 0.74 82 1005.7
20260506202220 20 330 1.6 3.2 0.00 0.74 0.74 83 1005.6
20260506201717 20 330 1.6 1.6 0.00 0.74 0.74 82 1005.7
20260506201214 19 287 1.6 3.2 0.00 0.74 0.74 84 1005.7
20260506200711 19 293 3.2 3.2 0.00 0.74 0.74 82 1005.7
20260506200208 19 285 1.6 1.6 0.00 0.74 0.74 84 1005.6
20260506195705 18 295 1.6 3.2 0.00 0.74 0.74 86 1005.6
20260506195201 18 7 0.0 1.6 0.00 0.74 0.74 84 1005.7
20260506194658 18 38 1.6 3.2 0.00 0.74 0.74 85 1005.8
20260506194154 18 55 0.0 1.6 0.00 0.74 0.74 86 1005.9
20260506193652 18 35 0.0 0.0 0.00 0.74 0.74 88 1005.9
20260506193149 17 316 1.6 1.6 0.00 0.74 0.74 89 1005.9
20260506192645 17 7 0.0 0.0 0.00 0.74 0.74 90 1006.1
20260506192141 17 238 0.0 0.0 0.00 0.74 0.74 90 1006.3
20260506191639 17 39 3.2 3.2 0.00 0.74 0.74 90 1006.0
20260506191135 17 184 0.0 0.0 0.00 0.74 0.74 90 1006.2
20260506190632 17 342 1.6 1.6 0.00 0.74 0.74 90 1006.3
20260506190129 17 152 0.0 1.6 0.00 0.74 0.74 90 1006.1
20260506185626 17 311 0.0 0.0 0.00 0.74 0.74 90 1006.2
20260506185122 17 298 0.0 0.0 0.00 0.74 0.74 91 1006.2
20260506184620 17 328 1.6 3.2 0.00 0.74 0.74 92 1006.1
20260506184117 17 311 0.0 0.0 0.00 0.74 0.74 92 1006.4
20260506183614 17 9 0.0 0.0 0.00 0.74 0.74 92 1006.4
20260506183109 17 248 0.0 0.0 0.00 0.74 0.74 92 1006.2
20260506182608 17 355 1.6 1.6 0.00 0.74 0.74 93 1006.4
20260506182104 16 273 0.0 1.6 0.00 0.74 0.74 94 1006.2
20260506181602 16 348 1.6 1.6 0.00 0.74 0.74 94 1006.4
20260506181059 16 295 1.6 1.6 0.00 0.74 0.74 94 1006.3
20260506180555 16 323 0.0 0.0 0.00 0.74 0.74 94 1006.4
20260506180052 16 79 0.0 1.6 0.00 0.74 0.74 94 1006.3
20260506175548 16 342 1.6 1.6 0.00 0.74 0.74 95 1006.6
20260506175045 16 1 1.6 1.6 0.00 0.74 0.74 94 1006.5
20260506174544 16 292 0.0 0.0 0.00 0.74 0.74 95 1006.6
20260506174039 16 70 1.6 1.6 0.00 0.74 0.74 95 1006.2
20260506173537 16 95 1.6 1.6 0.00 0.74 0.74 95 1006.3
20260506173034 16 349 0.0 0.0 0.13 0.74 0.74 95 1006.3
20260506172531 16 345 0.0 0.0 0.13 0.74 0.74 95 1006.4
20260506172027 16 277 0.0 0.0 0.00 0.71 0.71 95 1006.4
20260506171525 16 251 1.6 1.6 0.00 0.71 0.71 94 1006.5
20260506171022 16 273 0.0 0.0 0.00 0.71 0.71 95 1006.5
20260506170520 16 347 3.2 3.2 0.00 0.71 0.71 94 1006.5
20260506170017 16 264 1.6 3.2 0.00 0.71 0.71 95 1006.6
20260506165516 16 321 1.6 1.6 0.18 0.71 0.71 95 1006.5
20260506165011 16 69 0.0 0.0 0.18 0.71 0.71 95 1006.4
20260506164508 15 296 1.6 1.6 0.00 0.69 0.69 95 1006.4
20260506164006 15 166 1.6 1.6 0.00 0.69 0.69 94 1006.4
20260506163501 15 11 0.0 1.6 0.00 0.69 0.69 94 1006.6
20260506162956 15 319 4.8 6.4 0.00 0.69 0.69 94 1006.6
20260506162454 15 280 0.0 0.0 0.00 0.69 0.69 94 1006.6
20260506161951 15 206 0.0 0.0 0.00 0.69 0.69 94 1006.8
20260506161449 15 332 3.2 3.2 0.00 0.69 0.69 94 1006.6
20260506160946 15 52 0.0 0.0 0.00 0.69 0.69 94 1006.8
20260506160443 15 76 0.0 0.0 0.00 0.69 0.69 94 1006.6
20260506155940 15 217 0.0 1.6 0.00 0.69 0.69 93 1006.5
20260506155438 15 335 3.2 4.8 0.00 0.69 0.69 94 1006.4
20260506153605 15 216 0.0 0.0 0.00 0.69 0.69 93 1006.6
20260506153102 15 7 0.0 0.0 0.00 0.69 0.69 93 1006.7
20260506152559 15 110 0.0 0.0 0.00 0.69 0.69 93 1006.7
20260506152057 15 307 6.4 6.4 0.00 0.69 0.69 93 1006.5
20260506151555 15 168 1.6 1.6 0.00 0.69 0.69 93 1006.2
20260506151052 15 29 0.0 1.6 0.00 0.69 0.69 93 1006.2
20260506150548 15 69 1.6 1.6 0.13 0.69 0.69 93 1006.1
20260506150045 15 86 0.0 0.0 0.30 0.69 0.69 93 1006.3
20260506145541 15 350 1.6 3.2 0.36 0.66 0.66 93 1006.7
20260506145039 15 280 1.6 1.6 0.48 0.64 0.64 93 1006.7
20260506144536 15 18 6.4 6.4 0.43 0.61 0.61 93 1006.8
20260506144033 15 292 1.6 3.2 0.30 0.56 0.56 93 1006.7
20260506143531 15 349 1.6 1.6 0.30 0.53 0.53 93 1006.8
20260506143029 15 137 0.0 0.0 0.43 0.51 0.51 93 1007.1
20260506142526 15 58 6.4 9.7 0.48 0.48 0.48 92 1007.1
20260506142024 15 295 1.6 1.6 0.48 0.43 0.43 92 1007.3
20260506141522 15 331 8.0 12.9 0.61 0.41 0.41 92 1007.2
20260506141020 15 327 1.6 3.2 0.48 0.36 0.36 92 1007.1
20260506140517 15 121 1.6 1.6 0.18 0.30 0.30 92 1006.9
20260506140014 16 310 3.2 3.2 0.00 0.28 0.28 91 1006.9
20260506135511 15 36 1.6 3.2 0.13 0.28 0.28 92 1007.0
20260506135007 15 54 0.0 1.6 0.13 0.28 0.28 93 1006.8
20260506134504 15 5 0.0 0.0 0.00 0.25 0.25 93 1006.7
20260506134000 15 358 0.0 0.0 0.18 0.25 0.25 92 1006.7
20260506133457 15 14 0.0 0.0 0.30 0.25 0.25 92 1006.8
20260506132954 15 347 1.6 1.6 0.30 0.23 0.23 92 1006.8
20260506132451 15 279 0.0 0.0 0.30 0.20 0.20 91 1006.8
20260506131948 15 45 0.0 1.6 0.13 0.18 0.18 92 1006.6
20260506131445 15 30 3.2 4.8 0.00 0.15 0.15 92 1006.8
20260506130942 15 313 0.0 0.0 0.00 0.15 0.15 92 1007.0
20260506130438 15 23 0.0 1.6 0.00 0.15 0.15 91 1006.9
20260506125936 15 284 0.0 0.0 0.00 0.15 0.15 90 1006.9
20260506125434 15 8 3.2 4.8 0.00 0.15 0.15 89 1006.8
20260506124932 15 41 3.2 3.2 0.18 0.15 0.15 90 1006.8
20260506124429 15 73 1.6 1.6 0.18 0.15 0.15 92 1007.1
20260506123927 15 10 0.0 1.6 0.00 0.13 0.13 92 1006.8
20260506123425 15 5 0.0 0.0 0.00 0.13 0.13 91 1007.1
20260506122922 15 66 3.2 4.8 0.13 0.13 0.13 90 1006.9
20260506122419 15 220 1.6 1.6 0.13 0.13 0.13 90 1007.2
20260506121917 15 330 1.6 1.6 0.00 0.10 0.10 89 1007.2
20260506121414 15 281 0.0 1.6 0.18 0.10 0.10 90 1007.3
20260506120911 15 15 0.0 0.0 0.30 0.10 0.10 90 1007.2
20260506120408 15 249 1.6 1.6 0.13 0.08 0.08 89 1007.3
20260506115906 15 10 3.2 3.2 0.00 0.05 0.05 89 1007.5
20260506115404 15 154 1.6 3.2 0.00 0.05 0.05 88 1007.3
20260506114902 15 176 1.6 1.6 0.18 0.05 0.05 86 1007.4
20260506114359 15 347 3.2 3.2 0.18 0.05 0.05 85 1007.3
20260506113858 16 209 1.6 1.6 0.13 0.03 0.03 83 1007.3
20260506113354 16 213 1.6 3.2 0.13 0.03 0.03 80 1007.1
20260506112851 17 220 0.0 0.0 0.00 0.00 0.00 77 1006.9
20260506112348 17 284 0.0 1.6 0.00 0.00 0.00 75 1006.8
20260506111845 17 201 0.0 0.0 0.00 0.00 0.00 72 1006.9
20260506111344 17 260 4.8 9.7 0.00 0.00 0.00 71 1006.8
20260506110841 17 260 0.0 0.0 0.00 0.00 0.00 72 1006.9
20260506110338 17 72 0.0 0.0 0.00 0.00 0.00 70 1006.7
20260506105835 17 277 0.0 0.0 0.00 0.00 0.00 70 1006.6
20260506105331 17 323 0.0 1.6 0.00 0.00 0.00 70 1006.5
20260506104829 17 136 1.6 1.6 0.00 0.00 0.00 70 1006.6
20260506104326 17 285 1.6 1.6 0.00 0.00 0.00 68 1006.4
20260506103824 17 334 0.0 0.0 0.00 0.00 0.00 66 1006.3
20260506103321 17 329 0.0 0.0 0.00 0.00 0.00 65 1006.2
20260506102819 17 201 0.0 0.0 0.00 0.00 0.00 65 1006.2
20260506102316 17 265 0.0 1.6 0.00 0.00 0.00 64 1006.2
20260506101813 17 284 0.0 0.0 0.00 0.00 0.00 64 1006.1
20260506101309 17 273 1.6 3.2 0.00 0.00 0.00 65 1006.0
20260506100807 17 189 0.0 0.0 0.00 0.00 0.00 64 1006.0
20260506100305 18 347 0.0 0.0 0.00 0.00 0.00 63 1006.0
20260506095804 18 301 1.6 1.6 0.00 0.00 0.00 63 1006.1
20260506095300 18 275 1.6 3.2 0.00 0.00 0.00 63 1006.0
20260506094757 18 181 0.0 0.0 0.00 0.00 0.00 63 1005.9
20260506094255 18 9 3.2 4.8 0.00 0.00 0.00 62 1005.8
20260506093753 18 179 0.0 0.0 0.00 0.00 0.00 62 1005.9
20260506093250 18 226 0.0 1.6 0.00 0.00 0.00 62 1006.1
20260506092748 18 283 0.0 1.6 0.00 0.00 0.00 62 1006.0
20260506092246 18 118 1.6 3.2 0.00 0.00 0.00 63 1006.0
20260506091743 18 322 0.0 1.6 0.00 0.00 0.00 61 1006.1
20260506091240 18 204 1.6 3.2 0.00 0.00 0.00 60 1006.3
20260506090738 18 227 0.0 0.0 0.00 0.00 0.00 61 1006.2
20260506090235 18 265 1.6 1.6 0.00 0.00 0.00 61 1006.3